Location: Sigmaringen
(48.0900°N, 9.2120°E)
Time: 14:03:34
(UTC+02:00)

Tiangong 2 - Visible Passes

Search period start: 22 May 2018 00:00
Search period end: 01 June 2018 00:00
Orbit: 382 x 385 km, 42.8° (Epoch: 22 May)

Date Brightness Start Highest point End Pass type
(mag) Time Alt. Az. Time Alt. Az. Time Alt. Az.
22 May 2.9 21:58:49 10° S 22:00:35 14° SSE 22:01:48 12° SE visible
22 May 3.7 23:33:58 10° SW 23:34:04 11° SW 23:34:04 11° SW visible
23 May 2.2 22:34:28 10° SW 22:37:07 24° SSE 22:37:45 23° SSE visible
24 May 2.1 23:10:54 10° WSW 23:13:17 29° SSW 23:13:17 29° SSW visible
25 May 2.1 22:11:17 10° SW 22:14:04 28° S 22:16:22 13° ESE visible
25 May 3.3 23:47:39 10° WSW 23:48:34 16° WSW 23:48:34 16° WSW visible
26 May 2.0 22:47:53 10° WSW 22:50:42 30° S 22:51:29 26° SSE visible
27 May 2.0 21:48:11 10° WSW 21:51:00 31° S 21:53:51 10° ESE visible
27 May 2.8 23:24:47 10° WSW 23:26:31 20° SW 23:26:31 20° SW visible
28 May 2.3 22:24:54 10° WSW 22:27:37 26° S 22:29:17 17° SE visible
29 May 3.0 23:02:02 10° WSW 23:04:08 16° SSW 23:04:12 16° SSW visible
30 May 2.7 22:01:59 10° WSW 22:04:30 22° SSW 22:06:55 10° SE visible
31 May 3.4 22:39:43 10° SW 22:40:54 12° SSW 22:41:50 11° S visible
